Flag for Namibia Weather past 2 weeks in Windhoek, Namibia

Now
72 °F

Passing clouds.


Feels Like: 77 °F
Forecast: 57 / 79 °F
Wind: No wind

Location: Windhoek


UV Index: 7 (High)

Visibility: N/A


Pressure: 30.27 "Hg

Humidity: 53%

Dew point: 54 °F

Location of WindhoekLocation

Historic Weather in Windhoek

°F

Windhoek temperature yesterday

Maximum temperature yesterday: 77 °F (at 12:00 PM)
Minimum temperature yesterday: 54 °F (at 2:00 AM)
Average temperature yesterday: 65 °F

Past Weeks' High & Low Weather Summary

 TemperatureHumidityPressure
High84 °F (Apr 5, 2:00 PM)100% (Apr 13, 8:00 PM)30.36 "Hg (Apr 13, 8:00 PM)
Low50 °F (Apr 11, 6:00 AM)24% (Apr 3, 11:00 AM)30.09 "Hg (Apr 2, 4:00 PM)
Average64 °F60%30.25 "Hg
* Reported Apr 1 9:00 AM — Apr 16 8:00 AM, Windhoek, Weather by CustomWeather, © 2014

Note: Actual official high and low records may vary slightly from our data, if they occured in-between our weather recording intervals... More about our weather records

Advertising

Historic Weather Conditions — Data for Previous 24 hours

 ConditionsComfort  
Time TempWeatherWind HumidityBarometerVisibility
8:00 AM
Apr 16
70 °FSunny.No wind57%30.27 "Hg10 mi
7:00 AM63 °FSunny.No wind68%30.24 "Hg10 mi
6:00 AM57 °FSunny.3 mph77%30.24 "Hg10 mi
5:00 AM59 °FClear.3 mph77%30.21 "Hg10 mi
4:00 AM57 °FCool.6 mph77%30.21 "HgN/A
3:00 AM57 °FCool.3 mph77%30.18 "HgN/A
2:00 AM59 °FCool.5 mph72%30.18 "HgN/A
12:00 AM59 °FCool.No wind68%30.24 "HgN/A
11:00 PM
Apr 15
61 °FCool.8 mph63%30.21 "HgN/A
10:00 PM61 °FCool.7 mph68%30.24 "HgN/A
9:00 PM61 °FCool.6 mph68%30.24 "HgN/A
8:00 PM63 °FMild.6 mph64%30.21 "HgN/A
7:00 PM68 °FClear.No wind49%30.18 "Hg10 mi
4:00 PM73 °FSunny.5 mph36%30.18 "Hg10 mi
3:00 PM77 °FScattered clouds.5 mph30%30.18 "HgN/A
2:00 PM77 °FScattered clouds.No wind32%30.18 "HgN/A
1:00 PM77 °FScattered clouds.5 mph30%30.18 "HgN/A
12:00 PM77 °FPartly sunny.3 mph30%30.21 "HgN/A
11:00 AM75 °FScattered clouds.No wind27%30.24 "HgN/A
10:00 AM75 °FScattered clouds.3 mph34%30.24 "HgN/A
9:00 AM70 °FPassing clouds.No wind57%30.27 "HgN/A
Weather by CustomWeather, © 2014

See weather overview